Historyczne dane pomiarowe

Dodano dane terminowe – wersja testowa.

Dane z okresu 1951-2019

Wersja bazy: 1.34 [2019-03-16, lista zmian], aktualizacja planowana na 2019-04-15

Dane meteo z obszaru Polski uzyskane na podstawie danych udostępnionych przez Instytut Meteorologii i Gospodarki Wodnej – Państwowy Instytut Badawczy.

 

Wybierz Datę:    

       

TemperaturaWilgotnośćWiatrCiśnienieOpadyŚniegCzas trwania zjawisk
 Stacja t tx tn tng RH VA  wxwx mslp ppp RRR   cm mm wxwxwxwxwxwxwx
1969-02-15 -9.8 -3.5-25.3--- 6.7 6.0---- 1.2-- 10---------
1969-02-14-16.4-11.4-21.7--- 7.3 2.0---- 0.9-- 9---------
1969-02-13-18.1-13.8-23.3--- 5.0 3.0---- 0.5-- 9---------
1969-02-12-17.2 -8.3-21.2--- 3.0 3.0---- 0.0-- 9---------
1969-02-11 -9.6 -6.6-13.1--- 8.0 4.0---- 2.0-- 7---------
1969-02-10-10.4 -6.7-11.7--- 8.0 3.3---- 1.0-- 5---------
1969-02-09 -5.9 -0.7 -8.2--- 8.0 5.7---- 0.1-- 4---------
1969-02-08 -2.1 -0.2 -4.3--- 8.0 5.7---- 1.0-- 2---------
1969-02-07 -3.5 -1.5-11.1--- 7.0 7.7---- 0.0-- 1---------
1969-02-06 -7.6 -2.5-10.3--- 1.0 1.0---- 0.0-- 1---------
1969-02-05 -3.7 2.6 -6.6--- 3.7 1.3---- 0.0-- 2---------
1969-02-04 -1.3 0.7 -2.6--- 6.7 4.3---- 0.0-- 1---------
1969-02-03 0.4 2.8 -0.2--- 8.0 5.7---- 0.5------------
1969-02-02 1.7 3.2 -1.2--- 8.0 3.7---- 0.8------------
1969-02-01 1.1 3.3 -0.5--- 5.0 7.0---- 0.0------------
1969-01-31 2.3 4.3 0.8--- 5.3 6.3---- 0.0-- 2---------
1969-01-30 1.3 2.4 0.8--- 8.0 2.3---- 0.0-- 4---------
1969-01-29 0.9 1.4 -1.6--- 8.0 5.7---- 0.0-- 5---------
1969-01-28 -3.0 -0.7 -9.1--- 8.0 3.7---- 0.0-- 5---------
1969-01-27 -4.5 -1.6 -6.6--- 7.3 6.3---- 0.0-- 5---------
1969-01-26 -2.8 -1.9 -3.9--- 8.0 1.3---- 0.0-- 5---------
1969-01-25 -3.1 -1.5 -5.2--- 8.0 2.0---- 0.1-- 5---------
1969-01-24 -1.6 0.1 -3.3--- 8.0 3.0---- 0.2-- 4---------
1969-01-23 0.6 3.0 -3.3--- 8.0 4.7---- 0.4-- 4---------
1969-01-22 -5.9 -3.1-10.4--- 8.0 7.7---- 4.0-- 2---------
1969-01-21-11.4 -8.4-15.5--- 3.7 3.3---- 0.0-- 2---------
1969-01-20-10.2 -2.9-12.9--- 6.0 5.0---- 0.0-- 2---------
1969-01-19 -2.2 0.9 -3.2--- 8.0 6.3---- 0.6-- 2---------
1969-01-18 1.4 2.4 0.9--- 8.0 5.7---- 7.2------------
1969-01-17 0.7 1.6 -0.1--- 8.0 1.0---- 0.0-- 2---------
1969-01-16 1.2 1.7 -1.1--- 8.0 1.7---- 0.0-- 2---------
1969-01-15 -0.8 2.8 -8.7--- 8.0 3.7---- 0.0-- 2---------
1969-01-14 -6.0 0.5 -9.4--- 6.3 1.0---- 0.0-- 2---------
1969-01-13 -5.6 -4.5 -5.7--- 8.0 4.0---- 0.0-- 2---------
1969-01-12 -6.8 -4.3-13.8--- 8.0 6.3---- 0.0-- 2---------
1969-01-11-13.2 -8.9-18.8--- 4.0 3.3---- 0.0-- 2---------
1969-01-10-17.0-11.1-20.7--- 3.7 1.0---- 0.0-- 2---------
1969-01-09-15.8 -8.9-18.4--- 3.3 0.3---- 0.0-- 2---------
1969-01-08-11.6 -7.3-15.2--- 4.7 2.0---- 0.0-- 2---------
1969-01-07-10.0 -6.7-12.7--- 6.7 3.3---- 0.0-- 2---------
1969-01-06-10.8 -8.6-15.3--- 5.0 2.7---- 0.0-- 2---------
1969-01-05-12.6 -6.1-13.7--- 6.0 4.0---- 0.0-- 2---------
1969-01-04 -6.3 -4.5-14.7--- 8.0 3.3---- 0.0-- 2---------
1969-01-03-10.4 -6.1-13.7--- 6.7 1.7---- 0.0-- 2---------
1969-01-02-10.7 -6.9-17.2--- 6.3 1.7---- 0.0-- 2---------
1969-01-01 -7.2 -2.7-10.7--- 3.7 3.7---- 0.0-- 2---------
1968-12-31 -8.7 -6.1-10.2--- 7.0 4.7---- 0.5------------
1968-12-30 -9.5 -8.3-11.8--- 8.0 4.3---- 0.0------------
1968-12-29 -7.2 -3.1-10.8--- 7.7 3.0---- 0.0------------
1968-12-28 -2.9 -1.5 -5.9--- 8.0 3.0---- 0.0------------
1968-12-27 -2.3 -1.8 -2.8--- 8.0 2.0---- 0.3------------
1968-12-26 -2.4 -1.7 -3.6--- 8.0 1.0---- 0.0------------
1968-12-25 -1.9 0.7 -3.2--- 8.0 2.7---- 0.0------------
1968-12-24 1.0 2.4 -1.1--- 8.0 1.7---- 2.9------------
1968-12-23 -2.1 -0.9 -3.6--- 8.0 4.0---- 0.0------------
1968-12-22 -1.7 -1.1 -3.2--- 8.0 4.3---- 0.0------------
1968-12-21 -2.7 -1.1 -4.6--- 7.7 3.0---- 0.0------------
1968-12-20 -2.9 -0.1 -5.6--- 5.7 4.7---- 0.0------------
1968-12-19 -1.0 0.9 -1.7--- 6.7 3.0---- 0.0------------
1968-12-18 -1.5 -0.7 -2.6--- 8.0 2.0---- 0.0------------
1582.8 ms

 

Źródłem pochodzenia danych jest Instytut Meteorologii i Gospodarki Wodnej – Państwowy Instytut Badawczy. Dane Instytutu Meteorologii i Gospodarki Wodnej – Państwowego Instytutu Badawczego zostały przetworzone.

Dane źródłowe można odnaleźć na stronie https://dane.imgw.pl